Middlesboro, KY

11:51 PM EDT on July 26, 2016 (GMT -0400)
Middlesboro

Weather History for K1A6 - February, 2013

Change the Weather History Date:

Tuesday, February 12, 2013

  Actual Average (KLOZ) Record (KLOZ)
Temperature  
Mean Temperature 44 °F 39 °F  
Max Temperature 55 °F 49 °F 79 °F (1984)
Min Temperature 33 °F 29 °F -7 °F (1981)
Degree Days  
Heating Degree Days 21 26  
Month to date heating degree days 327  
Since 1 July heating degree days 2890  
Cooling Degree Days 0 0  
Month to date cooling degree days 0  
Year to date cooling degree days 0  
Moisture  
Dew Point 34 °F    
Average Humidity 69    
Maximum Humidity 100    
Minimum Humidity 38    
Precipitation  
Precipitation 0.00 in 0.14 in 1.19 in (1972)
Sea Level Pressure  
Sea Level Pressure 30.05 in    
Wind  
Wind Speed 0 mph (SSE)    
Max Wind Speed 5 mph    
Max Gust Speed -    
Visibility 10 miles    
Events      
T = Trace of Precipitation, MM = Missing Value Source: NWS Daily Summary

Daily Weather History Graph

Daily Weather History Graph

Search for Another Location

Airport or City:

Trip Planner

Search our weather history database for the weather conditions in past years. The results will help you decide how hot, cold, wet, or windy it might be!

Date:

Astronomy

Feb. 12, 2013 Rise Set
Actual Time 6:26 AM CST 5:12 PM CST
Civil Twilight 5:59 AM CST 5:39 PM CST
Nautical Twilight 5:29 AM CST 6:09 PM CST
Astronomical Twilight 4:59 AM CST 6:39 PM CST
Moon 7:28 AM CST (2/12) 8:05 PM CST (2/12)
Length of Visible Light 11h 39m
Length of Day
10h 46m
Waxing Crescent, 7% of the Moon is Illuminated
Feb 12
Waxing Crescent
Feb 17
First Quarter
Feb 25
Full
Mar 4
Last Quarter
Mar 11
New

Hourly Weather History & Observations

Time (CST) Temp. Windchill Dew Point Humidity Pressure Visibility Wind Dir Wind Speed Gust Speed Precip Events Conditions
12:15 AM 41.0 °F - 33.8 °F 76% 30.13 in 10.0 mi Calm Calm - N/A   Clear
12:35 AM 41.0 °F - 35.6 °F 81% 30.13 in 10.0 mi Calm Calm - N/A   Clear
12:55 AM 41.0 °F - 33.8 °F 76% 30.13 in 10.0 mi Calm Calm - N/A   Clear
1:15 AM 39.2 °F - 33.8 °F 81% 30.13 in 10.0 mi Calm Calm - N/A   Clear
1:35 AM 39.2 °F - 33.8 °F 81% 30.13 in 10.0 mi Calm Calm - N/A   Clear
1:55 AM 39.2 °F - 33.8 °F 81% 30.12 in 10.0 mi Calm Calm - N/A   Clear
2:15 AM 39.2 °F - 33.8 °F 81% 30.14 in 10.0 mi Calm Calm - N/A   Clear
2:35 AM 37.4 °F - 33.8 °F 87% 30.15 in 10.0 mi Calm Calm - N/A   Clear
2:55 AM 37.4 °F - 33.8 °F 87% 30.14 in 10.0 mi Calm Calm - N/A   Clear
3:15 AM 37.4 °F - 33.8 °F 87% 30.14 in 10.0 mi Calm Calm - N/A   Clear
3:35 AM 35.6 °F - 33.8 °F 93% 30.15 in 10.0 mi Calm Calm - N/A   Clear
3:55 AM 35.6 °F - 33.8 °F 93% 30.15 in 10.0 mi Calm Calm - N/A   Clear
4:15 AM 33.8 °F - 33.8 °F 100% 30.15 in 10.0 mi Calm Calm - N/A   Clear
4:35 AM 33.8 °F - 33.8 °F 100% 30.16 in 10.0 mi Calm Calm - N/A   Clear
4:55 AM 35.6 °F - 33.8 °F 93% 30.15 in 10.0 mi Calm Calm - N/A   Clear
5:15 AM 33.8 °F - 33.8 °F 100% 30.16 in 10.0 mi Calm Calm - N/A   Clear
5:35 AM 33.8 °F - 33.8 °F 100% 30.16 in 10.0 mi Calm Calm - N/A   Clear
6:15 AM 33.8 °F - 33.8 °F 100% 30.16 in 10.0 mi Calm Calm - N/A   Clear
6:35 AM 33.8 °F - 33.8 °F 100% 30.16 in 10.0 mi Calm Calm - N/A   Clear
6:55 AM 33.8 °F - 33.8 °F 100% 30.17 in 10.0 mi Calm Calm - N/A   Clear
7:15 AM 33.8 °F - 33.8 °F 100% 30.18 in 10.0 mi Calm Calm - N/A   Clear
7:35 AM 35.6 °F - 35.6 °F 100% 30.18 in 10.0 mi Calm Calm - N/A   Clear
7:55 AM 37.4 °F - 33.8 °F 87% 30.18 in 10.0 mi Calm Calm - N/A   Clear
8:15 AM 37.4 °F - 33.8 °F 87% 30.18 in 10.0 mi Calm Calm - N/A   Clear
8:35 AM 39.2 °F - 35.6 °F 87% 30.17 in 10.0 mi Calm Calm - N/A   Clear
8:55 AM 41.0 °F - 35.6 °F 81% 30.17 in 10.0 mi Calm Calm - N/A   Clear
9:15 AM 44.6 °F - 35.6 °F 71% 30.16 in 10.0 mi Calm Calm - N/A   Clear
9:35 AM 46.4 °F - 35.6 °F 66% 30.14 in 10.0 mi Calm Calm - N/A   Clear
9:55 AM 48.2 °F - 33.8 °F 58% 30.12 in 10.0 mi South 4.6 mph - N/A   Clear
10:15 AM 51.8 °F - 32.0 °F 47% 30.10 in 10.0 mi SSE 3.5 mph - N/A   Clear
10:35 AM 51.8 °F - 30.2 °F 44% 30.07 in 10.0 mi Calm Calm - N/A   Clear
10:55 AM 51.8 °F - 30.2 °F 44% 30.05 in 10.0 mi Calm Calm - N/A   Clear
11:15 AM 53.6 °F - 30.2 °F 41% 30.09 in 10.0 mi SSW 4.6 mph - N/A   Clear
11:35 AM 53.6 °F - 28.4 °F 38% 30.10 in 10.0 mi Calm Calm - N/A   Scattered Clouds
11:55 AM 53.6 °F - 30.2 °F 41% 30.09 in 10.0 mi Calm Calm - N/A   Scattered Clouds
12:15 PM 53.6 °F - 30.2 °F 41% 30.09 in 10.0 mi Calm Calm - N/A   Clear
12:35 PM 53.6 °F - 30.2 °F 41% 30.08 in 10.0 mi Calm Calm - N/A   Clear
12:55 PM 53.6 °F - 30.2 °F 41% 30.07 in 10.0 mi Calm Calm - N/A   Scattered Clouds
1:15 PM 55.4 °F - 30.2 °F 38% 30.03 in 10.0 mi East 3.5 mph - N/A   Clear
1:35 PM 55.4 °F - 30.2 °F 38% 30.04 in 10.0 mi Calm Calm - N/A   Clear
1:55 PM 55.4 °F - 30.2 °F 38% 30.06 in 10.0 mi Calm Calm - N/A   Clear
2:15 PM 53.6 °F - 30.2 °F 41% 30.05 in 10.0 mi Calm Calm - N/A   Clear
2:35 PM 53.6 °F - 30.2 °F 41% 30.04 in 10.0 mi Calm Calm - N/A   Clear
2:55 PM 53.6 °F - 30.2 °F 41% 30.03 in 10.0 mi Calm Calm - N/A   Clear
3:15 PM 53.6 °F - 30.2 °F 41% 30.01 in 10.0 mi Calm Calm - N/A   Scattered Clouds
3:55 PM 53.6 °F - 30.2 °F 41% 30.01 in 10.0 mi Calm Calm - N/A   Clear
4:15 PM 53.6 °F - 30.2 °F 41% 29.99 in 10.0 mi Calm Calm - N/A   Clear
4:35 PM 53.6 °F - 32.0 °F 44% 29.98 in 10.0 mi Calm Calm - N/A   Clear
4:55 PM 51.8 °F - 32.0 °F 47% 29.97 in 10.0 mi Calm Calm - N/A   Clear
5:15 PM 51.8 °F - 30.2 °F 44% 29.95 in 10.0 mi Calm Calm - N/A   Scattered Clouds
5:35 PM 51.8 °F - 33.8 °F 50% 29.94 in 10.0 mi Calm Calm - N/A   Clear
5:55 PM 48.2 °F - 35.6 °F 62% 29.96 in 10.0 mi Calm Calm - N/A   Scattered Clouds
6:15 PM 48.2 °F - 35.6 °F 62% 29.97 in 10.0 mi Calm Calm - N/A   Overcast
6:35 PM 48.2 °F - 37.4 °F 66% 29.98 in 10.0 mi Calm Calm - N/A   Overcast
6:55 PM 46.4 °F - 39.2 °F 76% 29.97 in 10.0 mi Calm Calm - N/A   Overcast
7:15 PM 46.4 °F - 37.4 °F 71% 29.96 in 10.0 mi Calm Calm - N/A   Overcast
7:35 PM 46.4 °F 45.2 °F 35.6 °F 66% 29.96 in 10.0 mi North 3.5 mph - N/A   Overcast
7:55 PM 46.4 °F - 37.4 °F 71% 29.96 in 10.0 mi Calm Calm - N/A   Overcast
8:15 PM 46.4 °F - 37.4 °F 71% 29.95 in 10.0 mi Calm Calm - N/A   Overcast
8:35 PM 46.4 °F - 39.2 °F 76% 29.94 in 10.0 mi Calm Calm - N/A   Overcast
8:55 PM 46.4 °F - 37.4 °F 71% 29.93 in 10.0 mi Calm Calm - N/A   Light Drizzle
9:15 PM 46.4 °F - 39.2 °F 76% 29.92 in 10.0 mi Calm Calm - N/A   Overcast
9:35 PM 44.6 °F - 39.2 °F 81% 29.91 in 10.0 mi Calm Calm - N/A   Overcast
9:55 PM 46.4 °F - 39.2 °F 76% 29.90 in 10.0 mi Calm Calm - N/A   Overcast
10:15 PM 46.4 °F - 39.2 °F 76% 29.89 in 10.0 mi Calm Calm - N/A   Overcast
10:35 PM 46.4 °F - 37.4 °F 71% 29.88 in 10.0 mi Calm Calm - N/A   Overcast
10:55 PM 46.4 °F - 39.2 °F 76% 29.88 in 10.0 mi Calm Calm - N/A   Overcast
11:15 PM 46.4 °F - 39.2 °F 76% 29.87 in 10.0 mi Calm Calm - N/A   Light Drizzle
11:35 PM 46.4 °F - 41.0 °F 81% 29.86 in 10.0 mi Calm Calm - N/A   Overcast
11:55 PM 46.4 °F - 39.2 °F 76% 29.85 in 10.0 mi Calm Calm - N/A   Overcast